Temp
25 26 26 26 29 27 28 30 29 31 31 31 31 30 32 32 33 34 24 25 24 23 22 24 24 24 24 25 26 26 25 25 25 25 25 25 25 24 24 23 23 23 23 23 23 24 23 23 23
25 26 26 26 28 28 29 29 30 30 31 30 30 31 31 32 30 27 25 23 23 22 22 22 24 24 24 25 25 25 25 25 25 25 25 25 24 24 24 23 24 23 23 24 23 23 22 23 22
25 25 28 27 26 28 29 29 29 30 31 30 31 31 31 31 30 28 26 23 23 22 22 22 24 24 24 25 25 25 25 25 25 25 25 24 24 24 24 24 23 23 24 24 23 23 23 22 22
24 26 25 26 27 27 27 28 29 30 31 31 30 31 32 30 30 28 24 23 23 22 22 23 24 24 24 25 25 25 25 25 25 25 25 24 24 24 24 24 24 24 24 24 23 23 23 22 22
23 25 26 25 26 26 26 27 29 30 30 31 31 30 31 29 24 24 23 23 24 23 22 21 24 24 24 25 25 25 25 25 25 24 24 24 24 24 24 24 24 24 24 24 23 23 23 23 23
25 25 25 26 26 25 26 27 28 29 30 31 30 30 31 26 25 23 23 23 24 23 22 22 24 24 24 24 24 24 25 24 24 24 24 24 24 24 24 24 24 24 24 24 24 24 24 24 23
25 24 25 25 25 25 27 27 28 28 29 30 30 30 31 31 25 23 23 23 23 23 22 22 22 23 24 24 24 24 24 24 24 24 24 24 24 24 24 24 24 25 24 24 24 24 24 24 23
24 24 24 24 24 25 26 26 26 28 28 30 30 30 30 30 25 23 22 23 23 23 23 22 22 22 22 22 23 24 24 23 23 23 23 24 24 24 24 24 24 24 24 24 24 24 24 23 23
22 23 24 24 23 25 25 25 26 27 27 28 29 29 30 27 24 24 23 23 23 22 23 22 22 22 22 22 22 24 24 23 22 22 23 23 22 24 24 24 24 24 24 24 24 24 24 24 23
23 22 23 23 24 24 25 25 25 26 27 27 28 30 29 26 25 26 25 25 24 23 22 22 21 21 21 22 21 21 21 22 22 20 20 21 21 22 22 23 24 24 24 24 24 24 24 23 21
21 22 22 23 24 24 24 24 26 26 26 27 27 29 30 29 28 26 27 26 25 24 23 22 21 21 21 21 21 21 21 21 20 21 21 20 20 20 21 21 21 21 22 21 22 22 21 21 21
22 21 23 24 24 24 24 25 25 26 26 27 27 28 28 29 29 29 27 26 25 23 22 22 21 21 20 21 21 21 21 20 20 20 22 20 20 20 20 21 21 21 21 21 23 21 23 23 22
22 22 23 23 23 23 24 24 25 26 27 27 27 27 28 28 29 29 27 27 25 23 22 22 21 21 20 20 21 21 21 21 21 20 20 20 20 20 20 20 20 21 20 21 23 24 23 23 23
22 22 23 23 23 23 23 25 24 26 27 27 27 27 28 28 28 29 27 25 24 24 23 22 21 21 20 20 20 20 20 20 20 20 20 21 21 22 20 20 20 21 23 23 23 22 23 23 22
22 22 22 23 24 24 24 24 23 25 26 26 27 28 28 28 27 28 28 26 25 24 23 22 21 20 20 20 20 21 21 21 21 20 19 21 23 22 22 22 23 22 23 24 23 23 23 23 23
22 21 22 23 22 24 23 24 25 25 24 25 26 27 27 27 27 27 26 26 25 24 23 22 21 21 20 20 21 21 21 21 21 21 20 19 20 22 23 22 22 23 23 22 22 22 22 22 22
20 22 21 22 23 22 23 24 24 25 25 24 24 25 26 26 26 26 26 25 24 23 22 22 21 21 20 20 21 21 21 21 21 22 25 24 20 20 23 22 22 24 23 23 22 22 22 22 22
20 20 20 20 23 22 22 23 24 24 24 24 24 25 25 25 26 26 25 27 27 25 22 21 21 21 20 20 20 20 20 21 21 21 25 23 19 19 22 22 23 23 23 21 23 22 22 22 23
20 20 20 21 22 21 22 22 23 24 24 24 25 24 24 25 26 24 23 23 25 25 25 21 20 20 19 19 19 19 19 19 19 19 20 19 21 22 21 20 21 22 22 23 22 20 23 21 23
20 20 21 21 22 21 22 22 23 23 24 25 25 25 24 24 25 24 23 21 22 24 24 25 22 21 19 19 20 20 19 19 19 19 19 19 20 22 25 23 21 20 21 22 23 22 21 22 22
21 20 21 21 21 22 22 22 23 24 23 24 25 25 24 24 24 24 24 22 21 21 23 23 23 21 20 20 20 19 19 19 18 18 19 20 21 21 22 23 22 21 21 21 22 22 21 23 20
20 21 21 20 20 21 21 20 23 23 23 24 25 25 26 24 24 23 24 23 23 21 20 21 21 21 20 19 19 19 20 21 20 20 20 20 21 22 23 23 23 23 20 20 20 22 22 20 21
21 21 20 20 20 20 21 20 22 23 22 23 24 25 25 25 23 23 24 24 23 22 20 20 20 20 20 19 20 20 21 21 21 21 20 20 20 21 22 22 21 21 20 22 21 20 19 20 19
20 20 20 18 20 19 21 21 21 23 23 24 24 24 24 24 23 22 21 20 20 22 20 19 19 20 20 20 20 20 20 21 21 21 21 21 21 20 20 19 20 20 21 20 21 21 19 18 17
19 19 19 19 20 20 20 19 21 22 22 22 23 24 23 21 20 20 21 21 20 21 22 20 19 20 20 20 20 20 21 20 21 21 22 22 22 21 22 20 19 19 19 19 21 22 22 21 16
19 18 18 16 18 19 19 17 20 21 19 19 20 20 19 19 20 20 20 19 19 19 20 20 20 20 19 19 20 20 20 20 20 20 21 21 22 21 20 19 19 21 20 19 19 21 20 19 20
17 17 16 16 17 16 18 19 21 19 18 18 19 19 19 19 19 19 20 19 18 18 18 19 20 20 19 19 19 18 18 19 20 19 20 20 19 20 19 19 18 18 19 19 18 18 19 18 18
17 17 15 14 14 16 18 18 18 18 17 18 18 18 17 18 19 19 19 19 18 17 17 17 18 19 18 18 18 19 19 20 20 19 19 20 20 19 19 19 19 18 18 18 18 18 19 19 19
16 15 14 14 12 14 15 18 17 17 17 17 18 17 16 16 17 18 19 19 19 18 17 16 16 17 18 18 19 19 19 19 19 19 20 20 20 20 19 18 18 18 18 18 18 18 18 19 19
16 16 16 14 13 12 12 15 19 19 17 16 16 16 15 16 16 17 18 18 18 19 19 18 17 17 18 17 17 18 18 20 21 20 20 20 20 20 18 18 18 19 19 18 19 19 20 19 19
Height
777 775 774 775 788 790 794 782 773 771 768 756 754 756 754 748 751 760 746 750 753 756 762 767 773 777 781 783 785 788 791 793 795 798 801 804 806 808 810 812 814 815 817 819 820 820 821 822 823
776 774 775 777 791 798 789 774 775 770 761 755 752 751 754 751 742 745 747 748 753 758 761 767 773 777 780 782 785 787 790 794 796 799 801 803 806 808 810 812 815 816 818 819 821 822 823 823 824
776 775 776 783 793 792 787 774 773 764 755 755 752 747 747 748 742 743 744 746 752 758 763 767 772 776 778 782 784 786 790 793 796 798 801 803 805 807 810 812 815 817 819 820 821 823 824 825 826
776 776 783 789 790 784 782 776 770 762 753 753 754 755 744 743 743 744 746 749 750 756 761 765 772 775 778 781 784 786 789 792 795 797 800 803 805 807 809 812 814 817 819 821 822 824 826 827 828
777 778 787 791 789 782 779 773 768 767 762 758 754 760 749 744 745 745 748 750 753 756 761 766 772 779 781 782 784 786 789 791 794 798 799 801 804 808 810 812 814 817 819 820 822 823 825 826 827
778 779 792 789 786 780 776 772 770 768 761 758 758 758 751 750 750 749 751 752 757 760 762 765 771 776 782 784 787 789 790 792 794 798 800 802 805 806 809 812 815 817 819 820 822 823 825 826 827
776 782 783 783 786 781 777 770 772 770 765 761 756 761 752 749 753 755 753 754 757 761 764 767 769 774 780 785 786 789 792 794 796 797 800 802 805 807 809 812 815 817 819 821 822 824 825 826 827
776 779 786 783 786 781 774 774 770 770 767 758 756 760 759 752 752 754 758 756 758 760 764 766 770 772 776 782 786 788 790 795 798 798 800 802 804 807 810 812 814 818 820 821 823 824 825 826 827
775 784 784 782 784 781 775 780 768 766 766 762 758 754 754 752 754 753 757 758 759 760 762 766 767 771 775 779 782 786 789 793 798 801 801 803 805 806 809 811 813 815 817 820 821 824 825 825 826
774 783 784 779 773 778 777 779 773 770 767 765 760 753 754 753 753 753 753 754 754 755 758 762 765 768 772 778 780 784 786 788 793 799 802 804 804 804 807 811 813 816 817 819 821 822 824 825 825
777 779 780 776 769 771 775 775 767 767 768 763 761 752 749 750 751 750 748 748 751 755 757 759 762 764 767 772 777 779 785 787 789 792 799 803 805 806 807 810 812 814 816 818 819 820 822 823 823
780 776 772 769 767 769 772 767 765 761 759 759 755 751 747 746 743 744 744 745 746 749 752 756 759 763 765 770 772 775 779 784 787 789 794 799 801 806 808 808 811 813 815 817 818 820 820 820 820
776 773 769 767 768 768 766 767 763 753 752 750 750 747 745 742 739 738 739 742 747 743 747 751 755 758 763 766 771 774 775 779 784 787 791 794 798 802 806 807 809 811 814 816 817 816 818 819 819
770 770 767 766 765 765 764 757 757 750 744 743 744 742 738 736 736 734 735 736 740 739 741 746 748 752 755 761 765 770 773 776 781 783 788 791 796 799 802 805 807 808 809 814 816 817 815 817 818
768 769 767 763 762 759 755 755 758 746 742 742 735 735 734 733 733 729 726 729 732 732 735 740 744 748 748 754 758 765 771 775 778 782 786 786 790 796 800 801 804 806 808 808 812 814 812 814 814
770 773 773 763 763 755 759 753 746 743 746 743 736 733 732 729 729 728 726 725 728 733 730 732 739 740 744 746 753 761 764 768 772 775 780 786 788 791 795 798 799 802 805 804 809 809 810 810 809
777 775 779 773 760 762 760 753 745 739 740 741 737 732 729 727 727 725 725 723 726 727 727 729 732 734 737 742 749 758 761 764 765 768 766 773 783 790 788 793 794 797 800 801 805 805 807 807 805
777 779 779 777 760 760 758 753 744 739 737 737 735 732 729 726 722 719 720 719 720 723 725 726 727 729 736 740 746 753 755 760 761 762 759 764 777 790 785 786 790 793 792 797 797 802 804 802 802
773 777 777 767 758 767 758 751 745 737 734 732 729 730 726 723 716 716 716 715 716 717 719 722 723 726 730 734 739 744 744 751 755 756 761 767 771 777 782 785 784 787 787 787 792 796 797 801 797
772 774 770 763 757 762 750 746 740 737 730 724 722 720 720 719 714 713 712 712 712 712 712 712 714 720 723 725 731 736 740 744 750 754 756 763 766 768 768 775 777 782 785 781 782 785 795 791 794
764 769 764 764 756 749 746 737 732 727 724 720 715 714 714 715 712 710 708 708 707 706 704 705 707 711 715 720 726 733 739 743 746 748 750 752 756 761 763 765 766 772 777 780 780 779 787 787 793
766 756 758 760 760 760 751 738 724 723 719 714 712 710 708 710 708 707 704 701 701 699 701 701 702 707 712 715 718 721 726 729 730 736 741 744 747 752 755 759 762 766 768 772 777 774 784 786 789
756 754 756 756 756 753 749 743 724 718 720 718 712 707 703 702 704 701 698 695 693 693 694 694 696 701 706 708 709 716 719 723 723 732 735 738 742 745 749 753 758 760 764 765 765 773 780 781 784
754 755 754 760 755 755 738 737 726 718 712 708 704 700 697 695 696 695 695 693 688 687 689 688 690 692 697 700 704 707 710 715 721 723 728 732 735 738 743 747 749 752 757 759 760 766 776 783 787
756 760 760 755 749 745 739 742 724 716 715 711 706 699 697 701 700 697 693 689 685 681 680 683 684 686 690 694 696 699 703 709 711 716 721 725 729 731 736 739 743 746 750 754 756 758 760 769 778
758 763 770 770 756 746 747 744 722 717 722 719 711 709 706 704 701 698 693 689 684 679 676 677 678 679 682 686 690 695 700 705 709 713 718 722 724 728 732 734 736 739 744 746 747 752 756 762 765
766 766 769 770 762 762 742 728 717 722 722 720 716 715 712 705 703 700 694 689 683 678 674 672 672 673 677 680 686 691 694 700 704 709 713 717 722 726 728 731 734 737 739 742 745 750 754 757 764
760 763 774 782 778 758 733 729 726 724 722 721 721 719 717 710 704 699 695 690 682 677 673 670 668 670 672 678 682 687 692 698 701 706 710 714 718 722 725 728 730 733 736 739 743 747 751 755 759
765 767 773 778 784 767 751 724 724 723 721 719 715 721 718 716 711 703 696 689 683 678 672 669 668 669 672 673 679 684 689 694 699 703 708 712 716 720 723 726 729 732 735 738 741 744 747 750 753
757 760 763 769 771 775 773 734 715 714 721 722 720 719 717 715 711 704 697 690 683 678 674 669 670 670 670 674 678 683 689 691 696 700 704 709 713 717 721 724 727 730 733 736 739 741 743 745 747
Wind_Speed
14 13 8 0 3 2 2 4 1 2 2 2 8 5 4 2 4 1 3 19 17 29 28 34 36 33 30 30 30 31 36 36 33 32 29 25 24 22 20 19 17 16 15 13 13 13 14 15 16
11 8 2 1 3 5 3 2 3 5 12 12 3 5 5 3 1 3 10 14 24 28 29 29 36 35 32 32 33 35 37 35 32 31 28 25 23 22 20 18 17 16 15 15 14 13 13 14 15
5 4 2 1 2 7 2 5 5 10 9 7 5 2 2 2 1 5 7 22 28 28 27 30 37 36 35 33 35 35 36 34 32 31 28 26 24 22 20 19 17 16 15 15 14 13 13 13 14
1 2 3 5 11 4 2 5 8 11 5 8 8 6 2 2 4 4 20 24 30 30 29 32 36 36 36 35 34 34 34 33 32 31 29 26 24 22 21 20 18 17 16 15 14 13 12 12 12
3 1 6 6 12 5 4 1 6 8 6 9 10 9 5 3 6 13 20 22 29 29 27 28 34 33 33 33 33 33 33 33 32 31 30 27 25 22 21 20 19 18 17 15 14 13 13 12 10
3 1 7 14 16 6 2 1 6 7 6 10 11 10 3 5 4 14 16 19 24 26 27 27 33 32 30 30 31 31 32 32 32 31 29 27 25 24 23 21 19 18 17 15 15 13 12 11 9
6 5 15 14 13 12 5 2 2 4 8 7 13 9 3 11 3 7 14 18 23 23 24 25 27 31 30 29 30 30 30 31 31 31 29 26 25 24 23 21 19 18 16 15 13 12 11 9 7
3 3 11 9 11 19 3 2 3 7 10 9 5 3 4 13 4 10 9 17 21 23 24 25 24 26 26 28 30 29 28 28 29 29 28 27 25 24 22 21 19 16 15 13 12 11 10 8 6
3 5 11 14 11 8 3 3 5 5 12 8 5 10 13 10 9 13 12 16 19 20 24 24 25 25 25 26 27 29 28 28 28 27 27 26 22 24 22 21 19 18 16 14 12 10 8 7 6
6 6 9 4 5 6 5 6 11 9 14 15 17 13 9 1 9 14 16 17 23 24 26 26 26 26 26 24 24 25 26 27 27 23 22 21 20 22 20 20 19 16 14 13 10 8 7 6 5
5 8 4 3 6 7 5 6 7 12 18 15 17 17 15 15 8 15 18 20 21 20 23 25 26 27 27 27 25 24 22 23 24 27 24 20 17 17 18 15 16 14 14 10 10 9 7 6 5
4 5 9 8 13 15 16 15 18 20 21 16 17 19 19 17 15 14 20 22 23 25 25 25 25 27 28 25 27 26 25 23 22 23 27 23 20 18 16 15 14 14 12 12 11 7 7 6 4
5 3 5 9 10 11 14 16 18 21 16 18 17 19 19 18 18 19 21 19 21 24 27 27 27 27 27 26 24 25 26 27 24 22 24 24 20 18 16 16 14 14 11 10 11 10 8 6 5
6 3 3 4 6 7 9 14 8 6 8 14 14 17 17 17 18 21 17 19 22 23 26 27 29 31 32 30 27 27 25 24 24 22 25 28 24 23 19 16 16 15 16 12 11 10 7 7 8
1 3 4 6 5 5 5 15 9 12 11 14 15 13 14 14 18 20 22 22 25 28 24 29 30 30 33 33 32 28 25 24 23 20 20 28 30 27 25 22 21 20 17 15 14 13 9 8 6
1 1 3 2 5 4 5 20 8 1 9 13 15 12 11 10 9 14 21 21 22 21 26 28 28 30 33 36 31 28 27 27 26 24 19 22 27 30 28 24 22 22 19 16 15 13 11 9 6
2 3 1 5 5 6 6 13 7 16 16 12 12 15 14 13 11 14 16 22 21 25 23 25 28 30 36 33 27 27 26 29 31 30 35 32 32 31 32 28 24 22 20 19 18 15 14 10 7
2 2 3 7 3 8 17 19 18 15 16 14 11 12 14 14 16 17 18 23 29 30 26 23 25 29 28 26 26 25 26 28 27 24 31 31 28 28 33 28 29 27 24 22 21 21 14 14 9
3 4 7 11 12 6 13 16 16 17 15 14 13 12 13 14 16 17 16 18 26 29 29 24 24 29 28 28 29 29 31 30 27 26 28 30 39 36 30 24 25 29 26 24 25 17 16 15 10
6 7 9 9 10 5 13 19 14 15 16 16 15 15 12 12 12 14 14 14 20 29 34 37 35 29 31 31 30 23 28 27 29 31 32 35 38 38 35 34 24 23 26 30 26 19 15 10 12
8 7 9 10 9 10 14 20 12 10 11 14 16 15 12 12 12 13 13 9 13 21 31 34 35 35 36 31 24 18 16 13 22 25 30 37 36 36 35 31 30 25 25 21 27 23 20 13 12
7 7 7 7 9 12 8 17 18 15 20 18 15 15 15 13 13 12 12 13 12 17 19 27 26 30 29 30 29 29 26 21 26 27 27 27 33 31 29 29 27 27 19 18 22 17 23 16 9
7 3 7 9 13 15 16 14 14 7 14 15 15 16 17 14 12 14 13 16 16 14 17 19 24 26 27 31 30 28 25 23 15 21 22 24 26 31 28 27 25 26 26 22 16 12 12 15 9
2 4 10 6 7 12 17 16 8 12 16 15 15 16 16 12 12 13 16 18 21 18 14 16 21 27 28 30 33 32 28 24 21 19 21 21 22 23 25 23 22 24 24 25 24 19 14 19 31
1 5 8 7 7 11 7 13 14 20 15 19 21 19 11 8 9 11 13 13 19 23 19 17 19 24 27 30 31 32 31 27 25 22 22 21 21 20 23 22 20 20 19 21 26 28 37 25 37
2 3 5 12 14 19 16 10 8 15 11 14 14 5 7 8 8 9 12 12 19 23 23 20 23 25 25 26 27 26 26 24 20 20 17 17 18 19 14 14 17 18 16 16 18 22 23 25 12
4 4 1 7 14 12 8 16 18 7 13 17 15 14 14 11 11 13 11 8 15 18 21 23 25 25 24 26 22 21 20 20 19 17 17 14 13 13 14 15 14 15 14 13 14 19 28 29 39
2 5 3 1 5 9 9 17 11 7 11 13 18 16 14 16 15 14 13 16 11 11 15 16 22 26 23 20 19 20 21 19 19 20 18 17 15 13 11 11 12 11 12 12 14 14 16 20 19
3 4 2 1 3 5 8 7 3 9 12 14 12 12 12 13 15 15 15 18 15 11 9 13 16 20 22 23 22 21 22 21 21 20 19 18 17 15 12 11 10 10 11 11 12 11 12 11 9
5 8 9 5 5 5 3 15 12 13 5 8 10 9 10 13 12 13 14 18 19 15 11 5 9 16 16 15 16 18 21 24 23 21 20 19 17 15 12 12 11 11 10 10 10 10 9 7 5
Wind_Direction
331 337 336 286 235 260 229 211 269 338 275 296 308 234 266 283 215 253 321 170 160 156 160 166 171 170 171 172 173 173 171 168 165 164 161 161 159 158 156 156 157 157 156 157 157 153 142 138 134
333 346 26 86 245 227 219 212 121 357 319 307 266 213 236 243 265 107 130 158 158 157 159 164 173 172 170 169 169 168 168 169 168 166 166 165 163 162 161 161 163 161 158 158 154 145 141 142 140
332 6 296 278 222 232 225 149 19 333 322 336 341 281 280 297 193 177 175 156 156 157 161 166 174 176 173 168 168 168 170 172 172 171 171 170 169 167 166 166 165 164 161 157 150 148 148 147 145
328 104 103 237 240 248 246 110 350 347 4 22 338 282 253 350 317 173 154 157 159 162 164 171 176 179 177 174 172 173 174 177 177 176 176 174 173 172 171 169 167 166 164 158 153 153 152 151 152
44 118 230 225 238 252 264 1 336 340 346 356 359 348 299 43 78 128 153 158 162 162 164 169 178 182 182 179 178 179 179 180 180 180 179 178 177 175 174 172 170 169 166 160 158 160 160 161 162
152 226 225 233 233 243 236 333 320 312 325 339 359 337 326 39 79 142 156 158 166 165 164 168 181 183 187 184 183 183 183 184 183 183 183 181 180 177 177 176 175 173 168 164 163 163 165 165 166
213 208 235 241 249 260 253 309 330 317 322 332 338 327 353 31 66 161 160 159 165 167 167 170 175 185 189 191 187 186 187 188 188 187 186 185 183 182 181 179 178 175 171 168 167 167 168 166 171
161 216 228 233 233 257 255 291 294 304 302 321 334 332 333 345 186 158 167 162 166 170 175 176 179 181 183 191 193 192 191 193 194 192 191 188 186 186 186 183 181 179 175 175 176 176 177 177 184
138 219 236 229 224 229 207 350 279 300 284 292 289 293 316 337 178 159 168 172 174 179 181 183 183 184 185 188 191 194 195 196 199 199 198 193 188 189 190 188 186 183 182 182 185 188 190 195 206
201 218 233 238 246 256 273 280 290 287 281 282 287 278 313 39 193 196 188 192 187 186 187 187 187 187 187 190 191 191 192 193 196 199 203 198 197 190 187 192 192 191 191 191 194 199 210 222 236
169 230 207 228 244 266 274 263 256 274 272 277 276 294 301 295 261 229 212 206 202 197 192 193 192 189 189 191 191 191 194 192 194 197 202 206 205 200 192 193 195 198 199 197 202 210 224 239 253
206 208 223 260 248 259 265 269 264 260 267 270 274 281 287 285 288 249 231 212 201 197 198 197 198 196 195 195 195 194 192 196 196 199 202 204 204 207 203 198 196 200 199 204 206 220 239 254 268
209 240 242 258 271 261 262 252 255 267 268 259 253 263 266 269 272 264 246 237 219 199 200 202 198 199 198 198 201 199 198 199 199 200 204 207 205 208 212 209 206 202 213 218 221 223 243 258 274
172 216 275 264 260 246 253 257 245 262 266 260 254 256 261 261 258 259 248 229 221 210 206 203 203 200 199 202 204 205 202 200 201 202 206 212 214 215 214 217 217 216 214 229 238 245 238 257 280
103 307 300 231 257 262 259 261 233 253 281 272 270 263 269 268 272 266 243 225 223 212 202 205 204 201 203 204 204 206 207 204 202 205 213 217 217 220 223 221 228 228 228 223 237 241 243 252 272
151 130 290 359 316 271 210 274 259 310 333 305 295 287 284 280 270 271 266 241 228 221 205 203 204 206 205 207 206 205 205 204 202 198 209 228 231 222 221 222 223 230 233 227 231 228 234 240 247
34 251 270 306 236 280 240 292 306 304 303 290 287 289 295 293 280 273 260 247 238 223 214 205 204 207 208 208 204 208 207 206 208 214 221 235 242 232 222 226 225 225 231 234 234 234 229 233 236
180 266 233 275 264 282 287 284 286 288 281 280 275 280 284 286 282 281 272 260 248 240 229 217 210 208 210 203 198 203 208 213 217 219 213 227 223 233 228 225 231 227 227 230 234 233 231 235 241
253 252 271 275 277 267 272 281 283 284 290 279 267 257 264 267 277 283 278 270 261 246 235 226 213 211 201 198 194 197 204 207 209 211 218 223 230 224 229 232 231 229 224 231 229 228 229 236 225
232 272 276 273 270 227 288 286 287 264 267 270 272 271 258 265 280 286 277 256 251 247 238 231 225 212 209 202 200 201 206 209 211 210 215 218 223 227 227 229 238 239 235 230 229 220 227 213 213
256 247 281 291 310 279 285 282 269 258 257 260 259 266 269 252 265 284 297 275 247 244 240 231 224 217 212 207 200 199 188 196 204 213 218 222 226 225 224 233 233 233 239 237 239 224 222 211 217
275 223 254 274 305 303 351 293 273 273 272 265 261 262 268 269 267 278 285 284 256 247 244 236 229 218 213 201 194 194 199 201 210 210 215 215 220 222 222 227 231 237 232 223 232 237 235 224 224
292 254 269 280 287 294 280 271 292 276 268 266 270 263 264 266 270 273 277 278 281 264 243 236 224 219 210 202 200 201 204 212 207 208 210 212 215 219 221 221 226 231 229 226 228 208 225 218 242
314 285 285 279 283 262 274 258 294 295 290 293 274 267 263 257 274 280 285 292 285 279 253 229 215 211 206 202 199 197 199 198 200 201 207 210 213 213 216 217 221 230 234 230 213 202 246 282 294
139 321 298 274 249 275 331 303 277 303 309 305 303 283 290 322 311 306 305 306 296 284 261 237 218 212 203 203 201 202 202 201 200 200 207 207 214 216 219 216 214 219 220 218 228 237 232 249 251
280 256 269 288 292 296 308 266 277 336 4 348 331 316 17 4 353 344 335 316 302 283 267 239 222 217 204 201 202 200 201 202 202 203 205 209 216 223 218 212 219 225 222 214 219 221 216 209 227
143 229 48 284 275 279 249 271 282 50 19 3 7 7 348 338 332 329 339 324 314 300 266 245 233 220 208 199 193 186 180 179 180 183 191 196 202 213 216 215 209 214 212 198 192 203 211 218 220
253 137 221 205 274 275 280 286 260 327 341 345 349 347 347 350 339 325 321 331 336 303 283 250 237 222 203 190 183 178 176 178 175 178 180 187 194 197 196 194 199 201 204 197 194 197 201 208 214
190 198 177 281 255 276 296 278 211 277 313 313 334 322 334 334 336 344 336 329 329 326 275 249 221 210 193 181 182 180 177 175 173 171 175 181 188 195 196 191 188 190 191 185 181 181 183 192 201
243 246 217 230 204 228 287 277 277 279 246 316 307 301 328 321 327 333 341 349 351 349 357 224 210 198 180 182 187 185 182 175 176 178 181 183 185 192 191 191 191 188 186 183 180 176 174 179 194